User: anonymous   Login
Location: Bothwell
(42.3833°S, 147.0000°E)
Time: 05:12:24
(UTC+10:00)
Language:

STRAND 1 - Orbit

View from above orbital plane
View from above orbital plane
View from above satellite
View from above satellite

Ground track
Ground track

The orbit data is extracted from the following two-line orbital elements,

1 39090U 13009E   22267.49861984  .00000194  00000-0  82547-4 0  9996
2 39090  98.4000 103.0359 0008732 344.0642  16.0268 14.35329568501609
Epoch (UTC): 24 September 2022 11:58:00
Eccentricity: 0.0008732
inclination: 98.4000°
perigee height: 768 km
apogee height: 780 km
right ascension of ascending node: 103.0359°
argument of perigee: 344.0642°
revolutions per day: 14.35329568
mean anomaly at epoch: 16.0268°
orbit number at epoch: 50160

The dashed part of the orbit path shows where the satellite is in the earth's shadow,  

DLR